Tracking 23448 objects as of 23-Jun-2021
HD Live streaming from Space Station
objects crossing your sky now

COSMOS 1285 DEB

Track COSMOS 1285 DEB now!


NORAD ID: 25839
Int'l Code: 1981-071H
Perigee: 4,973.9 km
Apogee: 35,805.1 km
Inclination: 67.6 °
Period: 726.1 minutes
Semi major axis: 26760 km
RCS: 0.1965 m2 (medium)
Launch date: August 4, 1981
Source: Commonwealth of Independent States (former USSR) (CIS)
Launch site: PLESETSK MISSILE AND SPACE COMPLEX (PKMTR)

Note: This is SATELLITE DEBRIS
aabbcc
Your satellite tracking list
Your tracking list is empty




NASA's NSSDC Master Catalog

Two Line Element Set (TLE):
1 25839U 81071H   18058.09242183 -.00000084 +00000-0 +00000-0 0  9998
2 25839 067.5784 283.7589 5760591 065.2530 011.0665 01.98317990152017
Source of the keplerian elements: AFSPC